www.pogodaiklimat.ru

Погода и климат >> Архив погоды >> Нигер >> Agadez


ПОГОДА в Agadez

  • Прогноз погоды в Agadez
  • Монитор погоды в Agadez
  • Климат города

АРХИВ ПОГОДЫ в Agadez

Время (UTC), дата Ветер
(напр.,м/с)
 
Видим.   Явления Облачность Т
(С)
Тd
(С)
f
(%)
Тe
(С)
Тes
(С)
Комфортность P
(гПа)
Po
(гПа)
Тmin
(С)
Tmax
(С)
R
(мм)
R24
(мм)
S
(см)
18 16.06 С 10 800 м пыль 9/0
[Cs]
+40.7 +13.6 20 +41 +41 опасность
перегрева
1004.5 950.8 +42.5
21 16.06 В 18 3000 м пыль 9/0
[Cs]
+37.5 +12.1 22 +37 +37 очень
жарко
1006.0 952.4
06 17.06 З 12 800 м пыль 3/0
[Ci sp]
+33.7 +16.4 36 +37 +37 очень
душно
1007.8 954.2 +29.8
09 17.06 З 10 1000 м пыль 6/0
[Ac trans Ci sp]
+35.7 +17.3 34 +39 +39 очень
душно
1008.7 955.0
12 17.06 С 8 1000 м пыль 6/0
[Ac trans Ci sp]
+40.5 +16.2 24 +42 +45 опасность
перегрева
1007.4 953.9
15 17.06 С 6 1000 м пыль 6/0
[Ac trans Ci sp]
+42.4 +15.7 21 +44 +46 опасность
перегрева
1005.0 951.8
18 17.06 З 10 4000 м в посл. час гроза {дождь} 6/0
[Ac trans Ci sp]
+35.5 +19.4 39 +41 +41 опасность
перегрева
1005.9 951.9 +43.0 0.7
06 18.06 ЮЗ 6 1000 м пыль 9/0
[Ac cast Ci sp]
+30.0 +16.9 45 +34 +34 очень
душно
1008.8 954.4 +29.3
09 18.06 ЮЗ 10 2400 м пыль 9/0
[Ac cast Ci sp]
+36.0 +17.1 33 +39 +39 очень
душно
1009.0 955.0
12 18.06 ЮЗ 8 3500 м пыль 9/0
[Cs]
+40.4 +14.3 22 +41 +44 опасность
перегрева
1006.5 953.0
15 18.06 Ю 10 4000 м пыль 8/0
[Ci sp]
+42.2 +12.7 18 +42 +42 опасность
перегрева
1003.6 950.3
18 18.06 З 8 4200 м пыль 9/0
[Ac cuf Ci sp]
+41.0 +11.3 17 +40 +40 очень
жарко
1002.9 949.2 +43.0
06 19.06 ЮЗ 6 10 км ясно +29.5 +15.7 43 +32 +33 душно 1005.5 951.7 +27.5
09 19.06 З 14 2500 м пыль ясно +36.5 +19.0 36 +41 +41 опасность
перегрева
1006.1 952.6
12 19.06 Ю 4 2300 м пыль ясно +41.2 +16.0 23 +43 +57 опасность
перегрева
1004.1 950.8
15 19.06 Ю 4 2500 м пыль 9/1 900 м
[Cb cap Ac cuf]
+42.3 +16.9 23 +44 +47 опасность
перегрева
1001.7 948.4
18 19.06 Ю 16 1600 м слабый ливневой дождь, в посл. час гроза 9/1 1200 м
[Cb cap Ac As]
+37.0 +14.4 26 +38 +38 душно 1002.4 948.4 +43.0 0.0
06 20.06 Ю 2 300 м пыльный позёмок 6/4 1200 м
[Cb cap Ac trans]
+31.4 +21.6 56 +40 +40 очень
душно
1008.2 954.1 +31.2
09 20.06 Ю 16 400 м пыльный позёмок {метель} 9/0
[Ac As]
+29.1 +19.3 56 +35 +35 очень
душно
1009.8 955.2
12 20.06 З 16 600 м пыль {метель} 9/0
[Cs]
+31.7 +19.3 48 +37 +37 очень
душно
1008.5 954.1
15 20.06 З 14 1000 м пыль 9/0
[Cs]
+34.4 +19.8 42 +40 +40 очень
душно
1006.5 952.4
18 20.06 З 10 2000 м пыль 9/0
[Cs]
+33.0 +20.0 46 +39 +39 очень
душно
1006.9 952.5 +35.0
06 21.06 СЗ 12 1500 м пыль 9/0
[Cs]
+27.7 +18.1 56 +32 +32 очень
душно
1010.0 955.1 +27.5
09 21.06 СЗ 12 6000 м пыль 9/0
[Cs]
+30.0 +18.6 50 +35 +35 очень
душно
1011.0 956.2
12 21.06 СЗ 10 4000 м пыль 9/0
[Cs]
+34.0 +20.2 44 +40 +41 очень
душно
1009.8 955.2
15 21.06 З 8 3500 м пыль 9/0
[Cs]
+36.3 +21.7 43 +44 +46 опасность
перегрева
1007.7 953.3
18 21.06 Ю 18 4000 м гроза без осадков {дождь} 9/3 1200 м
[Cb cap Ac As]
+27.5 +16.2 50 +31 +31 душно 1009.5 954.2 +37.0 2
06 22.06 Ю 8 10 км 9/0
[Ac As Ci sp]
+25.5 +20.3 73 +31 +32 очень
душно
1011.6 955.9 +24.5 2
09 22.06 ЮВ 8 10 км 9/0
[Ac cast Ci sp]
+29.0 +20.2 59 +35 +36 очень
душно
1012.5 957.2
12 22.06 ЮВ 10 8000 м пыль 8/0
[Ac cast Ci sp]
+34.0 +20.2 44 +40 +41 очень
душно
1011.2 956.2
15 22.06 Ю 10 10 км 9/1 900 м
[Cu med, cong Ac cast Ci sp]
+36.3 +19.9 38 +42 +42 опасность
перегрева
1008.4 953.7
18 22.06 Ю 10 10 км 9/3 1200 м
[Cb cap Ac cast Ci sp]
+35.3 +18.6 37 +40 +40 очень
душно
1008.4 953.6 +37.3
06 23.06 штиль 0 10 км 9/0
[Cs]
+28.9 +22.0 66 +37 +39 очень
душно
1010.4 955.8 +27.6
09 23.06 Ю 8 10 км 9/0
[Cs]
+34.2 +21.1 46 +41 +44 опасность
перегрева
1011.3 956.8
12 23.06 В 4 10 км 9/3 1200 м
[Cu hum Cs]
+37.7 +19.1 34 +42 +51 опасность
перегрева
1009.8 955.6
15 23.06 В 16 10 км 8/3 1000 м
[Cb cap Ci sp]
+38.9 +16.4 27 +41 +41 опасность
перегрева
1006.6 952.4

 

Местоположение метеостанции Agadez (Нигер): широта 16.97 долгота 7.97 высота над уровнем моря 502 м.

В архиве по умолчанию представлена погода в Agadez за последнюю неделю. Архивные данные за месяц целиком и за предыдущие месяцы, начиная с января 2011 года, Вы можете получить, выбрав интересующий диапазон дат из раскрывающегося списка и нажав кнопку "Ввод!".


*Определитесь, кто Вы:
робот инопланетянин человек

Внимание! Время в таблицах - всемирное. Для получения местного времени необходимо прибавить поправку, которая в Agadez равна 1 ч.

Смотрите также архив погоды в соседних городах и на ближайших метеорологических станциях:

Погода в Zinder (Нигер) (371 км)
Погода в Tahoua (Нигер) (371 км)
Погода в In Guezzam (Алжир) (372 км)
Погода в In Guezzam (Алжир) (372 км)
Погода в Maradi (Нигер) (401 км)
Погода в Goure (Нигер) (416 км)
Погода в Anesbaraka (Алжир) (445 км)
Погода в Magaria (Нигер) (456 км)
Погода в Birni-Nkonni (Нигер) (458 км)
Погода в Cano (Нигерия) (551 км)

Пояснения к столбцам:

Ветер - указаны скорость ветра в м/с - средняя за 10 мин, порывы в срок и между сроками (в фигурных скобках) и направление, откуда дует ветер: С - северный, СВ - северо-восточный, В - восточный, ЮВ - юго-восточный, Ю - южный, ЮЗ - юго-западный, З - западный, СЗ - северо-западный.
Видимость - горизонтальная дальность видимости в метрах или километрах. При видимости от 1 до 10 км при отсутствии осадков обычно наблюдается дымка, при ухудшении видимости до 1 км и менее - туман. В сухую погоду видимость может ухудшаться дымом, пылью или мглою.
Явления - указаны атмосферные явления, наблюдавшиеся в срок или в последний час перед сроком; фигурными скобками обозначены явления, наблюдавшиеся между сроками (за 1-3 часа до срока); квадратными скобками обозначены град или гололедные отложения с указанием их диаметра в мм.
Облачность - указаны через наклонную черту общая и нижняя облачность в баллах и высота нижней границы облаков в метрах; квадратными скобками обозначены формы облаков: Ci - перистые, Cs - перисто-слоистые, Cc - перисто-кучевые, Ac - высококучевые, As - высокослоистые, Sc - слоисто-кучевые, Ns - слоисто-дождевые, Cu - кучевые, Cb - кучево-дождевые. Подробнее классификацию облаков см. в Атласе облаков (PDF).
T - Температура воздуха - температура, измеренная на высоте 2 м над землей.
Td - Температура точки росы - температура, при понижении до которой содержащийся в воздухе водяной пар достигнет насыщения.
f - Относительная влажность воздуха - влажноcть воздуха, измеренная на высоте 2 м над землей.
Te - Эффективная температура - температура, которую ощущает одетый по сезону человек в тени. Характеристика душности погоды. При расчете учитывается влияние влажности воздуха и скорости ветра на теплоощущения человека.
Tes - Эффективная температура на солнце - температура, которую ощущает человек, с поправкой на солнечный нагрев. Характеристика знойности погоды. Зависит от высоты солнца над горизонтом, облачности и скорости ветра. Ночью, в пасмурную погоду, а также при ветре 12 м/с и более поправка равна нулю.
P - Атмосферное давление - приведенное к уровню моря атмосферное давление.
Po - Атмосферное давление - измеренное на уровне метеостанции атмосферное давление.
Tmin - Минимальная температура - минимум температуры воздуха на высоте 2 м над землей.
Tmax - Максимальная температура - максимум температуры воздуха на высоте 2 м над землей.
R - Количество осадков - Количество выпавших осадков за период времени, мм. При наведении курсора мыши на число - период времени, за который выпало указанное количество осадков.
R24 - Количество осадков - Количество выпавших осадков за 24 часа, мм.
S - Снежный покров - Высота снежного покрова, см. При наведении курсора мыши на число - состояние снежного покрова и степень покрытия местности в баллах.